Zurück zum Katalog

VULCAN CENTAUR R/B

AktivVLEO
NORAD 61448·ROCKET BODY·🇺🇸 United States

Gestartet Oct 4, 2024 von Cape Canaveral Space Force Station

Loading…

Nächste Überflüge (nächste 24 Stunden)

TLE

VeraltetSource: Space-Track

Epoche: Oct 4, 2024, 11:40 UTC

1 61448U 24179A   24278.48676111  .00000148  00000-0  00000+0 0  9995
2 61448  30.0000 357.3088 0004000 321.8000 177.5900 15.23529867    07

Verfolge VULCAN CENTAUR R/B in Echtzeit mit AllMySat

Download on the App Store